Change the Weather History Date:

Wednesday, December 5, 2012

  Actual Average Record
Temperature  
Mean Temperature 40 °F -  
Max Temperature 50 °F 35 °F 50 °F (2012)
Min Temperature 30 °F 22 °F -17 °F (2013)
Degree Days  
Heating Degree Days 25    
Moisture  
Dew Point 33 °F    
Average Humidity 91    
Maximum Humidity 100    
Minimum Humidity 66    
Precipitation  
Precipitation 0.13 in - - ()
Sea Level Pressure  
Sea Level Pressure 30.08 in    
Wind  
Wind Speed 3 mph (WNW)    
Max Wind Speed 7 mph    
Max Gust Speed -    
Visibility 8 miles    
Events Rain , Snow    
Averages and records for this station are not official NWS values.
T = Trace of Precipitation, MM = Missing Value Source: NWS Daily Summary

Daily Weather History Graph

Daily Weather History Graph

Search for Another Location

Airport or City:

Trip Planner

Search our weather history database for the weather conditions in past years. The results will help you decide how hot, cold, wet, or windy it might be!

Date:

Astronomy

Dec. 05, 2012 Rise Set
Actual Time 7:18 AM PST 4:10 PM PST
Civil Twilight 6:44 AM PST 4:44 PM PST
Nautical Twilight 6:07 AM PST 5:21 PM PST
Astronomical Twilight 5:31 AM PST 5:57 PM PST
Moon 11:20 PM PST (12/5) 11:30 AM PST (12/5)
Length of Visible Light 9h 59m
Length of Day
8h 52m
Waning Gibbous, 58% of the Moon is Illuminated
Dec 5
Waning Gibbous
Dec 6
Last Quarter
Dec 13
New
Dec 19
First Quarter
Dec 28
Full

Hourly Weather History & Observations

Time (PST) Temp. Windchill Dew Point Humidity Pressure Visibility Wind Dir Wind Speed Gust Speed Precip Events Conditions
12:56 AM 50.0 °F - 39.0 °F 66% 29.84 in 10.0 mi Variable 3.5 mph - N/A   Overcast
1:56 AM 44.1 °F 41.5 °F 41.0 °F 89% 29.89 in 5.0 mi Variable 4.6 mph - 0.00 in Rain Light Rain
2:17 AM 42.8 °F - 41.0 °F 93% 29.88 in 6.0 mi Calm Calm - 0.02 in Rain Light Rain
2:35 AM 41.0 °F 39.0 °F 39.2 °F 93% 29.89 in 1.8 mi Variable 3.5 mph - 0.02 in Rain Light Rain
2:48 AM 41.0 °F 38.0 °F 39.2 °F 93% 29.90 in 2.5 mi West 4.6 mph - 0.03 in Rain Rain
2:56 AM 41.0 °F 37.1 °F 39.9 °F 96% 29.93 in 4.0 mi Variable 5.8 mph - 0.04 in Rain Light Rain
3:56 AM 39.9 °F 35.1 °F 37.9 °F 93% 29.94 in 7.0 mi Variable 6.9 mph - 0.02 in Rain Light Rain
4:47 AM 37.4 °F 34.9 °F 37.4 °F 100% 29.93 in 3.0 mi Variable 3.5 mph - 0.05 in Rain Light Rain
4:56 AM 37.9 °F 35.5 °F 36.0 °F 93% 29.97 in 3.0 mi Variable 3.5 mph - 0.06 in Rain Rain
6:31 AM 35.6 °F 29.9 °F 33.8 °F 93% 30.00 in 10.0 mi Variable 6.9 mph - 0.01 in   Overcast
6:56 AM 34.0 °F 29.8 °F 33.1 °F 96% 30.06 in 5.0 mi Variable 4.6 mph - 0.01 in   Overcast
7:09 AM 33.8 °F 29.6 °F 33.8 °F 100% 30.03 in 6.0 mi Variable 4.6 mph - N/A   Overcast
8:01 AM 33.8 °F 29.6 °F 32.0 °F 93% 30.05 in 3.0 mi Variable 4.6 mph - 0.00 in Snow Light Snow
8:56 AM 34.0 °F - 32.0 °F 92% 30.11 in 10.0 mi Calm Calm - 0.00 in   Overcast
9:56 AM 34.0 °F - 32.0 °F 92% 30.13 in 10.0 mi Calm Calm - N/A   Overcast
10:56 AM 33.1 °F 30.0 °F 30.9 °F 92% 30.15 in 10.0 mi Variable 3.5 mph - N/A   Overcast
11:15 AM 33.8 °F - 32.0 °F 93% 30.10 in 2.0 mi Calm Calm - 0.00 in Snow Light Snow
11:22 AM 33.8 °F 30.8 °F 32.0 °F 93% 30.10 in 1.5 mi Variable 3.5 mph - 0.00 in Snow Light Snow
11:31 AM 33.8 °F 29.6 °F 30.2 °F 87% 30.10 in 3.0 mi NW 4.6 mph - 0.00 in Snow Light Snow
11:38 AM 33.8 °F - 30.2 °F 87% 30.10 in 2.0 mi Calm Calm - 0.00 in Snow Light Snow
11:55 AM 33.1 °F - 30.9 °F 92% 30.14 in 6.0 mi Calm Calm - 0.00 in   Overcast
12:08 PM 33.8 °F - 32.0 °F 93% 30.11 in 10.0 mi Calm Calm - N/A   Overcast
12:16 PM 33.8 °F 30.8 °F 30.2 °F 87% 30.11 in 9.0 mi Variable 3.5 mph - N/A   Overcast
12:56 PM 35.1 °F - 32.0 °F 89% 30.13 in 10.0 mi Calm Calm - N/A   Overcast
1:03 PM 35.6 °F - 32.0 °F 87% 30.11 in 10.0 mi Calm Calm - N/A   Overcast
1:33 PM 35.6 °F 32.8 °F 30.2 °F 81% 30.11 in 10.0 mi Variable 3.5 mph - N/A   Overcast
1:56 PM 36.0 °F - 32.0 °F 86% 30.15 in 10.0 mi Calm Calm - N/A   Mostly Cloudy
2:09 PM 35.6 °F - 30.2 °F 81% 30.12 in 10.0 mi Calm Calm - N/A   Mostly Cloudy
2:18 PM 35.6 °F 32.8 °F 30.2 °F 81% 30.12 in 10.0 mi Variable 3.5 mph - N/A   Mostly Cloudy
2:56 PM 35.1 °F - 30.0 °F 82% 30.17 in 10.0 mi Calm Calm - N/A   Mostly Cloudy
3:56 PM 33.1 °F - 28.9 °F 85% 30.17 in 10.0 mi Calm Calm - N/A   Clear
4:56 PM 30.0 °F - 28.9 °F 96% 30.19 in 9.0 mi Calm Calm - N/A   Scattered Clouds
5:56 PM 30.0 °F - 28.9 °F 96% 30.19 in 10.0 mi Calm Calm - N/A   Mostly Cloudy
6:56 PM 30.9 °F - 30.0 °F 96% 30.20 in 9.0 mi Calm Calm - N/A   Overcast
7:07 PM 30.2 °F - 30.2 °F 100% 30.13 in 10.0 mi Calm Calm - N/A   Overcast
7:56 PM 32.0 °F - 30.9 °F 96% 30.20 in 10.0 mi Calm Calm - N/A   Overcast
8:56 PM 32.0 °F - 30.9 °F 96% 30.19 in 10.0 mi Calm Calm - N/A   Overcast
9:56 PM 32.0 °F - 30.0 °F 92% 30.19 in 10.0 mi Calm Calm - N/A   Overcast
10:15 PM 32.0 °F - 30.2 °F 93% 30.12 in 10.0 mi Calm Calm - N/A   Overcast
10:56 PM 30.9 °F - 30.0 °F 96% 30.20 in 10.0 mi Calm Calm - N/A   Overcast
11:56 PM 30.9 °F - 30.0 °F 96% 30.20 in 10.0 mi Calm Calm - N/A   Overcast